Regional Weather Roundup
Issued by NWS

Home | Current Version | Previous Version | Text Only | Print | Product List | Glossary Off
Versions: 1 2 3 4 5 6 7 8 9 10 11 12 13 14 15 16 17 18 19 20 21 22 23 24 25 26 27 28 29 30 31 32 33 34 35 36 37 38 39 40 41 42 43 44 45 46 47 48 49 50

566
ASUS43 KDTX 242210
RWRMI
MICHIGAN HOURLY REGIONAL WEATHER ROUNDUP
NATIONAL WEATHER SERVICE DETROIT/PONTIAC MI
600 PM EDT SAT SEP 24 2016

NOTE: "FAIR" INDICATES FEW OR NO CLOUDS BELOW 12,000 FEET WITH NO
SIGNIFICANT WEATHER AND/OR OBSTRUCTION TO VISIBILITY.

MIZ047>049-052>055-059>063-066>070-074>076-081>083-242300-
SOUTHEAST LOWER MICHIGAN

CITY           SKY/WX    TMP DP  RH WIND       PRES   REMARKS
ADRIAN         SUNNY     71  54  54 SE8       30.19S
ALMA           SUNNY     68  49  50 E9        30.22F
ANN ARBOR      SUNNY     68  50  52 E8        30.19F
BAD AXE        CLOUDY    58  44  58 NE6       30.27R
CARO           SUNNY     65  47  52 E5        30.23R
DETROIT CITY   SUNNY     67  45  45 E5        30.21S
DETROIT        MOSUNNY   69  48  47 E7        30.20F
FLINT          SUNNY     67  48  50 E5        30.22S
GROSSE ILE     MOSUNNY   67  54  64 CALM      30.20S
HILLSDALE      PTSUNNY   70  54  56 E5        30.18S
HOWELL         SUNNY     67  49  54 NE3       30.21S

CITY           SKY/WX    TMP DP  RH WIND       PRES   REMARKS
JACKSON        SUNNY     69  54  58 NE7       30.19S
LAMBERTVILLE   SUNNY     69  51  52 E5        30.20S
LANSING        SUNNY     68  50  52 NE7       30.22R
LAPEER         FAIR      65  45  47 E5        30.23S
MASON          SUNNY     68  50  52 SE6       30.21S
MONROE         SUNNY     68  55  63 SE7       30.19S
MT. CLEMENS    MOSUNNY   66  49  55 NE6       30.20S
PONTIAC        MOSUNNY   67  47  48 VRB3      30.21S
PORT HOPE        N/A     61  46  57 NE10      30.25F
PORT HURON     SUNNY     61  46  59 N6        30.24S
TRI CITIES     SUNNY     65  51  60 NE12      30.25R
MIDLAND        FAIR      65  48  55 NE9       30.24S
TROY           SUNNY     70  44  38 NE7       30.22F
SAGINAW HB     SUNNY     64  50  59 N8        30.24R
$$
MIZ043>046-050>051-056>058-064>065-071>073-077>080-242300-
SOUTHWEST LOWER MICHIGAN

CITY           SKY/WX    TMP DP  RH WIND       PRES   REMARKS
BATTLE CREEK   SUNNY     72  56  57 SE6       30.19S
BENTON HARBOR  SUNNY     75  61  61 SE7       30.15F
BIG RAPIDS     SUNNY     67  45  44 SE6       30.22S
COLDWATER      SUNNY     71  56  58 E5        30.18S
FREMONT        FAIR      68  42  39 E5        30.20F
HOLLAND        SUNNY     71  57  61 E8        30.19S
GRAND RAPIDS   MOSUNNY   69  52  54 NE10      30.20F
IONIA          FAIR      66  49  53 NE8       30.20F
KALAMAZOO      SUNNY     73  56  54 CALM      30.18S
LUDINGTON      MOSUNNY   69  52  54 E6        30.20S
MARSHALL       SUNNY     71  55  56 CALM      30.18S
MOUNT PLEASANT SUNNY     67  49  53 NE6       30.23S
MUSKEGON       SUNNY     71  51  49 E7        30.19F
SOUTH HAVEN    SUNNY     73  61  65 SE5       30.17S
$$
MIZ016>042-242300-
NORTHERN LOWER MICHIGAN

CITY           SKY/WX    TMP DP  RH WIND       PRES   REMARKS
ALPENA         SUNNY     62  43  49 SE7       30.27F
BEAVER ISLAND  SUNNY     63  47  57 E6        30.25F
BELLAIRE       SUNNY     68  42  38 SE3       30.23S
CADILLAC       SUNNY     65  47  52 SE6       30.22F
CHARLEVOIX     SUNNY     65  46  50 E6        30.27S
FRANKFORT      SUNNY     69  45  41 SE5       30.20F
GAYLORD        MOSUNNY   63  42  46 NE10      30.26R
GRAYLING       CLOUDY    66  46  47 E5        30.25F
HARBOR SPRINGS CLOUDY    64  45  49 E7        30.25S
HOUGHTON LAKE  SUNNY     65  45  48 E3        30.25S
MANISTEE       SUNNY     69  50  50 E9        30.20S
OSCODA         CLOUDY    60  43  54 E6        30.27S
PELLSTON       SUNNY     63  41  44 E10       30.26F
ROGERS CITY    SUNNY     61  42  49 E7        30.28S
TRAVERSE CITY  MOSUNNY   69  46  43 CALM      30.21F
$$
MIZ007>008-015-242300-
EASTERN UPPER MICHIGAN

CITY           SKY/WX    TMP DP  RH WIND       PRES   REMARKS
KINROSS        SUNNY     62  45  53 S5        30.26S
MACKINAC ISLAN SUNNY     60  44  54 E9        30.26F
NEWBERRY       SUNNY     62  47  58 S6        30.24F
S. S. MARIE    SUNNY     65  41  41 VRB3      30.24F
MUNISING         N/A     64  48  56 S7        30.21F
$$
MIZ004>006-011>014-085-242300-
CENTRAL UPPER MICHIGAN

CITY           SKY/WX    TMP DP  RH WIND       PRES   REMARKS
MANISTIQUE     SUNNY     62  46  56 E8        30.24F
ESCANABA       SUNNY     63  48  58 SE12      30.23S
MENOMINEE      SUNNY     66  52  60 SE8       30.21F
SAWYER-GWINN   SUNNY     64  46  52 S12       30.22F
$$
MIZ001>003-009>011-084-242300-
WESTERN UPPER MICHIGAN

CITY           SKY/WX    TMP DP  RH WIND       PRES   REMARKS
IRON MOUNTAIN  SUNNY     67  47  48 SE14      30.18F
HOUGHTON       SUNNY     64  51  62 E10       30.16F
COPPER HARBOR    N/A     63  52  67 S10G20    30.18F
IRONWOOD       PTSUNNY   70  56  61 SE9       30.11F
$$

ABBREVIATIONS USED IN REMARKS
   TC - TEMPERATURE IN CELSIUS
  WCI - WIND CHILL INDEX
   HX - HEAT INDEX
  VSB - VISIBILITY





USA.gov is the U.S. government's official web portal to all federal, state and local government web resources and services.